| time (UTC) | temp C | wind direction | speed KPH | gust KPH | rain 1hr cm | rain 24hr cm | rain mn cm | humidity % | barometer mb |
| 20260502213031 | 9 | 264 | 0.0 | 0.0 | 0.00 | 0.20 | 0.20 | 66 | 1010.7 |
| 20260502211509 | 8 | 264 | 0.0 | 0.0 | 0.13 | 0.20 | 0.20 | 66 | 1010.5 |
| 20260502210017 | 8 | 264 | 0.0 | 1.6 | 0.13 | 0.20 | 0.20 | 68 | 1010.6 |
| 20260502204555 | 8 | 264 | 0.0 | 1.6 | 0.13 | 0.20 | 0.20 | 70 | 1010.7 |
| 20260502203032 | 9 | 259 | 0.0 | 3.2 | 0.13 | 0.20 | 0.20 | 73 | 1010.7 |
| 20260502201505 | 10 | 272 | 0.0 | 9.7 | 0.00 | 0.08 | 0.08 | 79 | 1010.8 |
| 20260502200020 | 12 | 266 | 0.0 | 4.8 | 0.00 | 0.08 | 0.08 | 68 | 1010.6 |
| 20260502194553 | 13 | 102 | 0.0 | 4.8 | 0.00 | 0.08 | 0.08 | 64 | 1010.4 |
| 20260502193034 | 13 | 217 | 0.0 | 3.2 | 0.00 | 0.08 | 0.08 | 65 | 1010.5 |
| 20260502191509 | 12 | 165 | 0.0 | 4.8 | 0.00 | 0.08 | 0.08 | 65 | 1010.7 |
| 20260502190023 | 12 | 217 | 0.0 | 4.8 | 0.00 | 0.08 | 0.08 | 69 | 1010.9 |
| 20260502184602 | 12 | 144 | 0.0 | 3.2 | 0.00 | 0.08 | 0.08 | 64 | 1011.0 |
| 20260502183059 | 13 | 223 | 1.6 | 8.0 | 0.00 | 0.08 | 0.08 | 65 | 1010.9 |
| 20260502181518 | 12 | 190 | 0.0 | 4.8 | 0.00 | 0.08 | 0.08 | 65 | 1011.0 |
| 20260502163052 | 11 | 219 | 0.0 | 3.2 | 0.00 | 0.08 | 0.08 | 69 | 1011.8 |
| 20260502161518 | 11 | 201 | 0.0 | 4.8 | 0.00 | 0.08 | 0.08 | 65 | 1011.8 |
| 20260502151522 | 11 | 91 | 0.0 | 1.6 | 0.00 | 0.08 | 0.08 | 70 | 1012.2 |
| 20260502123046 | 8 | 255 | 0.0 | 1.6 | 0.03 | 0.03 | 0.03 | 77 | 1013.4 |
| 20260502121522 | 8 | 89 | 0.0 | 4.8 | 0.00 | 0.00 | 0.00 | 75 | 1013.3 |
| 20260502114510 | 8 | 82 | 0.0 | 1.6 | 0.00 | 0.00 | 0.00 | 77 | 1012.9 |
| 20260502113048 | 8 | 83 | 0.0 | 1.6 | 0.00 | 0.00 | 0.00 | 78 | 1012.4 |
| 20260502111530 | 7 | 82 | 0.0 | 1.6 | 0.00 | 0.00 | 0.00 | 77 | 1012.1 |
| 20260502110040 | 7 | 263 | 0.0 | 1.6 | 0.00 | 0.00 | 0.00 | 77 | 1012.7 |
| 20260502104516 | 7 | 242 | 0.0 | 0.0 | 0.00 | 0.00 | 0.00 | 78 | 1012.3 |
| 20260502103055 | 7 | 242 | 0.0 | 0.0 | 0.00 | 0.00 | 0.00 | 78 | 1012.2 |
| 20260502101541 | 7 | 242 | 0.0 | 0.0 | 0.00 | 0.00 | 0.00 | 78 | 1012.0 |
| 20260502091532 | 7 | 242 | 0.0 | 1.6 | 0.00 | 0.00 | 0.00 | 77 | 1011.9 |
| 20260502071530 | 8 | 257 | 0.0 | 1.6 | 0.00 | 0.00 | 0.00 | 74 | 1011.8 |
| 20260502070037 | 8 | 257 | 0.0 | 0.0 | 0.00 | 0.00 | 0.00 | 73 | 1012.0 |
| 20260502064515 | 8 | 257 | 0.0 | 1.6 | 0.00 | 0.00 | 0.00 | 73 | 1011.8 |
| 20260502063050 | 8 | 101 | 0.0 | 1.6 | 0.00 | 0.00 | 0.00 | 73 | 1012.2 |
| 20260502061529 | 8 | 336 | 0.0 | 1.6 | 0.00 | 0.00 | 0.00 | 73 | 1012.3 |
| 20260502060040 | 8 | 269 | 0.0 | 3.2 | 0.00 | 0.00 | 0.00 | 72 | 1012.1 |
| 20260502054520 | 8 | 292 | 0.0 | 1.6 | 0.00 | 0.00 | 0.00 | 72 | 1012.1 |
| 20260502053112 | 8 | 43 | 0.0 | 0.0 | 0.00 | 0.00 | 0.00 | 71 | 1012.1 |
| 20260502051544 | 8 | 43 | 0.0 | 0.0 | 0.00 | 0.00 | 0.00 | 70 | 1012.1 |
| 20260502050054 | 8 | 53 | 0.0 | 0.0 | 0.00 | 0.00 | 0.00 | 70 | 1012.2 |
| 20260502044539 | 8 | 53 | 0.0 | 0.0 | 0.00 | 0.00 | 0.00 | 69 | 1012.2 |
| 20260502043013 | 8 | 53 | 0.0 | 0.0 | 0.00 | 0.00 | 0.00 | 69 | 1012.2 |
| 20260502041621 | 8 | 53 | 0.0 | 0.0 | 0.00 | 0.00 | 0.00 | 68 | 1012.3 |
| 20260502040100 | 9 | 53 | 0.0 | 1.6 | 0.00 | 0.00 | 0.00 | 66 | 1012.3 |
| 20260502034537 | 9 | 271 | 0.0 | 0.0 | 0.00 | 0.00 | 0.00 | 64 | 1012.3 |
| 20260502033013 | 9 | 24 | 0.0 | 1.6 | 0.00 | 0.00 | 0.00 | 64 | 1012.3 |
| 20260502031551 | 9 | 6 | 0.0 | 0.0 | 0.00 | 0.00 | 0.00 | 64 | 1012.5 |
| 20260502030004 | 8 | 6 | 0.0 | 1.6 | 0.00 | 0.00 | 0.00 | 63 | 1012.4 |
| 20260502024541 | 8 | 349 | 0.0 | 1.6 | 0.00 | 0.00 | 0.00 | 63 | 1012.3 |
| 20260502023019 | 7 | 291 | 0.0 | 3.2 | 0.00 | 0.00 | 0.00 | 66 | 1012.4 |
| 20260502021555 | 7 | 18 | 0.0 | 1.6 | 0.00 | 0.00 | 0.00 | 71 | 1012.5 |
| 20260502020007 | 6 | 213 | 0.0 | 1.6 | 0.00 | 0.00 | 0.00 | 73 | 1012.4 |
| 20260502014549 | 7 | 239 | 0.0 | 0.0 | 0.00 | 0.00 | 0.00 | 71 | 1012.0 |
| 20260502013045 | 7 | 239 | 0.0 | 0.0 | 0.00 | 0.00 | 0.00 | 69 | 1012.0 |
| 20260502011536 | 7 | 240 | 0.0 | 0.0 | 0.00 | 0.00 | 0.00 | 68 | 1011.9 |
| 20260502010041 | 8 | 240 | 0.0 | 0.0 | 0.00 | 0.00 | 0.00 | 63 | 1011.5 |
| 20260502004522 | 9 | 240 | 0.0 | 0.0 | 0.00 | 0.00 | 0.00 | 57 | 1011.2 |
| 20260502003055 | 10 | 239 | 0.0 | 0.0 | 0.00 | 0.00 | 0.00 | 53 | 1011.2 |
| 20260502001535 | 11 | 240 | 0.0 | 0.0 | 0.00 | 0.00 | 0.00 | 52 | 1010.9 |
| 20260502000045 | 12 | 240 | 0.0 | 0.0 | 0.00 | 0.00 | 0.00 | 47 | 1010.7 |
| 20260501234526 | 13 | 239 | 0.0 | 1.6 | 0.00 | 0.00 | 0.00 | 44 | 1010.5 |
| 20260501233107 | 13 | 256 | 0.0 | 1.6 | 0.00 | 0.00 | 0.00 | 43 | 1010.3 |
| 20260501231551 | 14 | 263 | 0.0 | 3.2 | 0.00 | 0.00 | 0.00 | 40 | 1009.9 |
| 20260501230049 | 15 | 271 | 0.0 | 6.4 | 0.00 | 0.00 | 0.00 | 38 | 1009.8 |
| 20260501224524 | 15 | 210 | 0.0 | 6.4 | 0.00 | 0.00 | 0.00 | 38 | 1009.7 |
| 20260501223134 | 15 | 256 | 0.0 | 6.4 | 0.00 | 0.00 | 0.00 | 37 | 1009.8 |
| 20260501223001 | 15 | 272 | 0.0 | 6.4 | 0.00 | 0.00 | 0.00 | 38 | 1009.8 |
| 20260501221539 | 16 | 232 | 0.0 | 6.4 | 0.00 | 0.00 | 0.00 | 38 | 1009.7 |
| 20260501220047 | 16 | 297 | 1.6 | 6.4 | 0.00 | 0.00 | 0.00 | 35 | 1009.6 |
| 20260501214530 | 17 | 216 | 0.0 | 4.8 | 0.00 | 0.00 | 0.00 | 34 | 1009.6 |